STARLINK-4587 (53635 NORAD) Tracking and Keplerian Element Data

This shows tracking and keplerian element data for the satellite.

Feedback or suggestion? Click here.




ElementValue
Catalog53635
NameSTARLINK-4587
Epoch Orbit130
Epoch Day324.91667824
Epoch Year2022
RAAN232.7596
Inclination53.2176
Eccentricity0.0001419
Argument of Perigee53.6523
Mean Anonmoly263.8843
Mean Motion15.22461668
Decay Rate-0.01149001
L11 53635U 22104AZ 22324.91667824 -.01149001 00000+0 -53134-1 0 9991
L22 53635 53.2176 232.7596 0001419 53.6523 263.8843 15.22461668 1300



Live tracking and technical data element details for STARLINK-4587 (NORAD 53635). STARLINK-4587 can be tracked NOW for your location showing map with azimuth and elevation plus other details from your city location.







IsCatalogInMostPopularTable: catalog: 53635, numindb: 2
Update: records affected: 1



GetName: 53635 STARLINK-4587

Hit Count: updated at: Thu, 08 Dec 2022 10:39:35 GMT